Location: Shenandoah County Park
(38.9356°N, 78.4524°W)
Time: 15:33:39
(UTC-05:00)

Vanguard 2 Rocket - Pass Details

Date: 02 December 2023
Orbit: 555 x 3309 km, 32.9° (Epoch: 03 March)

Event Time Altitude Azimuth Distance (km) Brightness Sun altitude
Rises 19:57:11 0° 278° (W) 7,296 12.5 -35.4°
Reaches altitude 10° 20:02:22 10° 275° (W) 6,209 11.9 -36.4°
Maximum altitude 20:20:39 55° 205° (SSW) 2,968 9.3 -40.0°
Enters shadow 20:24:17 47° 166° (SSE) 2,938 9.1 -40.7°
Drops below altitude 10° 20:32:30 10° 132° (SE) 4,183 - -42.3°
Sets 20:35:17 0° 127° (SE) 4,863 - -42.8°
